AKX572 RJCW-RJTT

Flight info

Callsign AKX572
Flight time 1h 37m
Altitude 30000
Route YOROI Y10 GODIN
Aircraft B738/M-SDE2E3FGHIRWXY/LB1

Departure

Time 2026-05-05 04:39
Airport Wakkanai Airport (RJCW)

Arrival

Time 2026-05-05 06:17
Airport Tokyo Haneda International Airport (RJTT)
Time Latitude Longitude Altitude Speed Heading
2026-05-05 04:12 45.39997 141.79710 33 ft 0 kts 159°
2026-05-05 04:30 45.39999 141.79709 32 ft 2 kts 159°
2026-05-05 04:30 45.40014 141.79700 32 ft 2 kts 159°
2026-05-05 04:31 45.40029 141.79692 31 ft 2 kts 159°
2026-05-05 04:31 45.40045 141.79683 31 ft 2 kts 176°
2026-05-05 04:31 45.40060 141.79691 32 ft 2 kts 216°
2026-05-05 04:31 45.40072 141.79706 32 ft 2 kts 226°
2026-05-05 04:32 45.40083 141.79723 33 ft 2 kts 236°
2026-05-05 04:32 45.40087 141.79732 33 ft 0 kts 246°
2026-05-05 04:34 45.40084 141.79722 33 ft 4 kts 250°
2026-05-05 04:34 45.40099 141.79655 31 ft 12 kts 316°
2026-05-05 04:34 45.40195 141.79591 33 ft 17 kts 338°
2026-05-05 04:35 45.40279 141.79643 33 ft 15 kts 66°
2026-05-05 04:35 45.40318 141.79785 32 ft 16 kts 69°
2026-05-05 04:35 45.40357 141.79927 32 ft 16 kts 69°
2026-05-05 04:35 45.40400 141.80086 31 ft 19 kts 68°
2026-05-05 04:36 45.40454 141.80283 34 ft 24 kts 68°
2026-05-05 04:36 45.40523 141.80536 35 ft 30 kts 69°
2026-05-05 04:36 45.40603 141.80830 35 ft 32 kts 69°
2026-05-05 04:36 45.40681 141.81117 35 ft 30 kts 68°
2026-05-05 04:37 45.40737 141.81367 37 ft 21 kts 89°
2026-05-05 04:37 45.40765 141.81517 37 ft 12 kts 354°
2026-05-05 04:37 45.40775 141.81460 37 ft 0 kts 250°
2026-05-05 04:38 45.40773 141.81454 37 ft 8 kts 250°
2026-05-05 04:38 45.40635 141.80951 36 ft 98 kts 249°
2026-05-05 04:39 45.40302 141.79713 170 ft 159 kts 240°
2026-05-05 04:39 45.39903 141.78191 1018 ft 175 kts 243°
2026-05-05 04:39 45.39174 141.76795 2002 ft 180 kts 219°
2026-05-05 04:39 45.37983 141.76155 2999 ft 199 kts 191°
2026-05-05 04:40 45.36511 141.76368 3742 ft 221 kts 181°
2026-05-05 04:40 45.34979 141.76757 4435 ft 228 kts 179°
2026-05-05 04:40 45.33402 141.77132 5052 ft 231 kts 181°
2026-05-05 04:40 45.31795 141.77435 5674 ft 236 kts 182°
2026-05-05 04:41 45.30105 141.77683 5992 ft 249 kts 183°
2026-05-05 04:41 45.28377 141.77892 5997 ft 249 kts 184°
2026-05-05 04:41 45.26646 141.78068 6003 ft 249 kts 185°
2026-05-05 04:41 45.24911 141.78217 6008 ft 249 kts 185°
2026-05-05 04:42 45.23180 141.78349 6012 ft 249 kts 185°
2026-05-05 04:42 45.21448 141.78471 6020 ft 249 kts 186°
2026-05-05 04:42 45.19715 141.78585 6011 ft 250 kts 186°
2026-05-05 04:42 45.17973 141.78695 6011 ft 250 kts 186°
2026-05-05 04:43 45.16236 141.78802 6027 ft 249 kts 186°
2026-05-05 04:43 45.14521 141.78906 6019 ft 249 kts 187°
2026-05-05 04:43 45.12770 141.79009 6043 ft 255 kts 186°
2026-05-05 04:43 45.10972 141.79097 6076 ft 256 kts 189°
2026-05-05 04:44 45.09231 141.79031 6808 ft 249 kts 191°
2026-05-05 04:44 45.07489 141.78930 7564 ft 251 kts 191°
2026-05-05 04:44 45.05732 141.78834 8330 ft 253 kts 191°
2026-05-05 04:44 45.03976 141.78746 9087 ft 254 kts 191°
2026-05-05 04:45 45.02214 141.78659 9753 ft 259 kts 191°
2026-05-05 04:45 45.00398 141.78573 10376 ft 263 kts 191°
2026-05-05 04:45 44.98555 141.78488 10985 ft 267 kts 191°
2026-05-05 04:45 44.96689 141.78404 11618 ft 270 kts 191°
2026-05-05 04:46 44.94804 141.78319 12243 ft 272 kts 191°
2026-05-05 04:46 44.92903 141.78235 12818 ft 277 kts 191°
2026-05-05 04:46 44.90925 141.78141 13210 ft 289 kts 191°
2026-05-05 04:46 44.88879 141.78043 13644 ft 300 kts 191°
2026-05-05 04:47 44.86756 141.77944 14028 ft 310 kts 191°
2026-05-05 04:47 44.84559 141.77844 14411 ft 321 kts 191°
2026-05-05 04:47 44.82298 141.77744 14883 ft 328 kts 190°
2026-05-05 04:47 44.80002 141.77645 15381 ft 333 kts 190°
2026-05-05 04:48 44.77661 141.77545 15891 ft 339 kts 190°
2026-05-05 04:48 44.75287 141.77444 16419 ft 344 kts 190°
2026-05-05 04:48 44.72881 141.77340 16944 ft 348 kts 189°
2026-05-05 04:48 44.70446 141.77235 17481 ft 352 kts 189°
2026-05-05 04:49 44.67985 141.77129 18024 ft 356 kts 189°
2026-05-05 04:49 44.65496 141.77021 18518 ft 359 kts 189°
2026-05-05 04:49 44.63022 141.76914 18982 ft 362 kts 190°
2026-05-05 04:49 44.60486 141.76805 19465 ft 365 kts 190°
2026-05-05 04:50 44.57939 141.76694 19968 ft 368 kts 190°
2026-05-05 04:50 44.55370 141.76582 20476 ft 370 kts 191°
2026-05-05 04:50 44.52792 141.76470 20986 ft 372 kts 191°
2026-05-05 04:50 44.50203 141.76358 21508 ft 373 kts 191°
2026-05-05 04:51 44.47596 141.76244 22025 ft 374 kts 191°
2026-05-05 04:51 44.44991 141.76132 22551 ft 375 kts 191°
2026-05-05 04:51 44.42371 141.76018 23094 ft 376 kts 191°
2026-05-05 04:51 44.39760 141.75905 23583 ft 377 kts 191°
2026-05-05 04:52 44.37165 141.75792 24004 ft 378 kts 191°
2026-05-05 04:52 44.34527 141.75680 24433 ft 379 kts 191°
2026-05-05 04:52 44.31892 141.75567 24837 ft 379 kts 191°
2026-05-05 04:52 44.29256 141.75452 25298 ft 379 kts 191°
2026-05-05 04:53 44.26608 141.75336 25729 ft 379 kts 192°
2026-05-05 04:53 44.23975 141.75223 26172 ft 379 kts 192°
2026-05-05 04:53 44.21341 141.75112 26621 ft 378 kts 192°
2026-05-05 04:53 44.18715 141.75000 27077 ft 376 kts 192°
2026-05-05 04:54 44.16090 141.74881 27349 ft 381 kts 192°
2026-05-05 04:54 44.13426 141.74757 27619 ft 384 kts 192°
2026-05-05 04:54 44.10745 141.74639 27923 ft 387 kts 192°
2026-05-05 04:54 44.08071 141.74523 28196 ft 391 kts 192°
2026-05-05 04:55 44.05335 141.74406 28476 ft 395 kts 192°
2026-05-05 04:55 44.02578 141.74290 28751 ft 398 kts 192°
2026-05-05 04:55 43.99788 141.74171 29031 ft 401 kts 192°
2026-05-05 04:55 43.96991 141.74049 29299 ft 404 kts 192°
2026-05-05 04:56 43.94178 141.73923 29596 ft 406 kts 191°
2026-05-05 04:56 43.91349 141.73807 29854 ft 409 kts 191°
2026-05-05 04:56 43.88475 141.73679 29917 ft 417 kts 191°
2026-05-05 04:57 43.82570 141.73420 29896 ft 437 kts 191°
2026-05-05 04:57 43.76355 141.73163 29870 ft 455 kts 190°
2026-05-05 04:58 43.69924 141.72892 29899 ft 470 kts 189°
2026-05-05 04:58 43.63288 141.72604 29904 ft 484 kts 189°
2026-05-05 04:59 43.56453 141.72298 29908 ft 497 kts 189°
2026-05-05 04:59 43.49507 141.71994 29898 ft 507 kts 188°
2026-05-05 05:00 43.42435 141.71695 29902 ft 505 kts 189°
2026-05-05 05:00 43.35458 141.71401 29914 ft 500 kts 188°
2026-05-05 05:01 43.28480 141.71102 29913 ft 502 kts 188°
2026-05-05 05:01 43.21479 141.70799 29918 ft 504 kts 188°
2026-05-05 05:02 43.14481 141.70496 29927 ft 506 kts 188°
2026-05-05 05:02 43.07442 141.70194 29931 ft 507 kts 188°
2026-05-05 05:03 43.00428 141.69895 29927 ft 508 kts 188°
2026-05-05 05:03 42.93359 141.69593 29951 ft 508 kts 188°
2026-05-05 05:04 42.86279 141.69292 29958 ft 507 kts 188°
2026-05-05 05:04 42.80410 141.69043 29944 ft 507 kts 187°
2026-05-05 05:05 42.72220 141.68695 29969 ft 506 kts 188°
2026-05-05 05:05 42.66315 141.68735 29969 ft 510 kts 182°
2026-05-05 05:06 42.59220 141.69467 29974 ft 510 kts 180°
2026-05-05 05:06 42.52193 141.70270 29967 ft 509 kts 180°
2026-05-05 05:07 42.45134 141.70989 29982 ft 508 kts 181°
2026-05-05 05:07 42.38075 141.71657 29997 ft 508 kts 181°
2026-05-05 05:08 42.31012 141.72319 29983 ft 506 kts 181°
2026-05-05 05:08 42.23989 141.72982 29985 ft 505 kts 181°
2026-05-05 05:09 42.17000 141.73642 29932 ft 503 kts 181°
2026-05-05 05:09 42.10040 141.74293 29987 ft 500 kts 181°
2026-05-05 05:10 42.03145 141.74946 29969 ft 500 kts 181°
2026-05-05 05:10 41.96207 141.75597 30003 ft 499 kts 181°
2026-05-05 05:11 41.89265 141.76247 30008 ft 500 kts 181°
2026-05-05 05:11 41.82320 141.76900 30013 ft 501 kts 181°
2026-05-05 05:12 41.75362 141.77555 29999 ft 501 kts 181°
2026-05-05 05:12 41.68411 141.78211 30010 ft 501 kts 181°
2026-05-05 05:13 41.61450 141.78859 30016 ft 501 kts 181°
2026-05-05 05:13 41.54506 141.79508 30019 ft 500 kts 181°
2026-05-05 05:14 41.47682 141.79203 30026 ft 487 kts 197°
2026-05-05 05:14 41.41159 141.77044 30015 ft 482 kts 201°
2026-05-05 05:15 41.34665 141.74835 30027 ft 481 kts 200°
2026-05-05 05:15 41.28173 141.72689 30023 ft 480 kts 200°
2026-05-05 05:16 41.21696 141.70586 30026 ft 477 kts 200°
2026-05-05 05:16 41.15294 141.68518 30036 ft 474 kts 200°
2026-05-05 05:17 41.08893 141.66451 30042 ft 474 kts 200°
2026-05-05 05:17 41.02475 141.64380 30041 ft 473 kts 200°
2026-05-05 05:18 40.96081 141.62322 30041 ft 473 kts 200°
2026-05-05 05:18 40.89691 141.60268 30049 ft 472 kts 200°
2026-05-05 05:19 40.83340 141.58232 30044 ft 472 kts 200°
2026-05-05 05:19 40.76938 141.56184 30025 ft 471 kts 200°
2026-05-05 05:20 40.70572 141.54152 30024 ft 470 kts 200°
2026-05-05 05:20 40.64210 141.52124 30054 ft 470 kts 200°
2026-05-05 05:21 40.57886 141.50112 30058 ft 470 kts 200°
2026-05-05 05:21 40.51532 141.48095 30066 ft 469 kts 200°
2026-05-05 05:22 40.45187 141.46084 30068 ft 469 kts 200°
2026-05-05 05:22 40.38848 141.44079 30067 ft 468 kts 200°
2026-05-05 05:23 40.32510 141.42079 30072 ft 467 kts 200°
2026-05-05 05:23 40.26202 141.40093 30065 ft 465 kts 200°
2026-05-05 05:24 40.19924 141.38118 30075 ft 464 kts 200°
2026-05-05 05:24 40.13656 141.36152 30069 ft 462 kts 200°
2026-05-05 05:25 40.07409 141.34194 30080 ft 461 kts 200°
2026-05-05 05:25 40.01226 141.32260 30089 ft 459 kts 200°
2026-05-05 05:26 39.95021 141.30267 30090 ft 458 kts 201°
2026-05-05 05:26 39.88854 141.28232 30106 ft 456 kts 201°
2026-05-05 05:27 39.82687 141.26203 30106 ft 456 kts 201°
2026-05-05 05:27 39.73482 141.23194 30122 ft 455 kts 201°
2026-05-05 05:28 39.67341 141.21195 30109 ft 455 kts 201°
2026-05-05 05:28 39.61209 141.19203 30113 ft 454 kts 201°
2026-05-05 05:29 39.55104 141.17222 30104 ft 454 kts 201°
2026-05-05 05:29 39.48975 141.15236 30100 ft 453 kts 201°
2026-05-05 05:30 39.42861 141.13260 30108 ft 453 kts 201°
2026-05-05 05:30 39.36747 141.11379 30133 ft 454 kts 200°
2026-05-05 05:31 39.30597 141.09540 30099 ft 454 kts 200°
2026-05-05 05:31 39.24444 141.07695 30129 ft 453 kts 200°
2026-05-05 05:32 39.18303 141.05840 30149 ft 453 kts 200°
2026-05-05 05:32 39.12161 141.03991 30138 ft 453 kts 200°
2026-05-05 05:33 39.06068 141.02161 30135 ft 452 kts 200°
2026-05-05 05:33 38.99933 141.00322 30142 ft 452 kts 200°
2026-05-05 05:34 38.93789 140.98481 30140 ft 453 kts 200°
2026-05-05 05:34 38.87644 140.96639 30146 ft 452 kts 199°
2026-05-05 05:35 38.81499 140.94809 30145 ft 453 kts 199°
2026-05-05 05:35 38.75387 140.92989 30150 ft 453 kts 199°
2026-05-05 05:36 38.69241 140.91160 30130 ft 454 kts 199°
2026-05-05 05:36 38.63084 140.89331 30147 ft 454 kts 199°
2026-05-05 05:37 38.56929 140.87506 30150 ft 454 kts 199°
2026-05-05 05:37 38.50764 140.85690 30156 ft 454 kts 199°
2026-05-05 05:38 38.44669 140.83908 30152 ft 454 kts 199°
2026-05-05 05:38 38.38654 140.82151 30146 ft 454 kts 199°
2026-05-05 05:39 38.32492 140.80351 30139 ft 454 kts 199°
2026-05-05 05:39 38.26345 140.78559 30150 ft 452 kts 199°
2026-05-05 05:40 38.20213 140.76770 30148 ft 451 kts 199°
2026-05-05 05:40 38.14109 140.74976 30140 ft 450 kts 200°
2026-05-05 05:41 38.08048 140.73196 30134 ft 450 kts 200°
2026-05-05 05:41 38.01940 140.71409 30144 ft 449 kts 200°
2026-05-05 05:42 37.95847 140.69629 30162 ft 448 kts 200°
2026-05-05 05:42 37.89806 140.67864 30154 ft 447 kts 200°
2026-05-05 05:43 37.83732 140.66097 30165 ft 448 kts 200°
2026-05-05 05:43 37.77646 140.64327 30166 ft 449 kts 200°
2026-05-05 05:44 37.71559 140.62566 30144 ft 449 kts 200°
2026-05-05 05:44 37.65464 140.60818 30153 ft 447 kts 201°
2026-05-05 05:45 37.59440 140.59092 30163 ft 444 kts 201°
2026-05-05 05:45 37.56433 140.58232 30011 ft 441 kts 201°
2026-05-05 05:45 37.53431 140.57372 29302 ft 442 kts 200°
2026-05-05 05:46 37.50439 140.56514 28612 ft 441 kts 200°
2026-05-05 05:46 37.47439 140.55654 27933 ft 443 kts 200°
2026-05-05 05:46 37.44415 140.54787 27289 ft 446 kts 200°
2026-05-05 05:46 37.41374 140.53918 26653 ft 448 kts 200°
2026-05-05 05:47 37.38371 140.53062 26032 ft 445 kts 199°
2026-05-05 05:47 37.35345 140.52204 25416 ft 442 kts 199°
2026-05-05 05:47 37.32359 140.51355 24822 ft 439 kts 199°
2026-05-05 05:47 37.29379 140.50506 24234 ft 437 kts 199°
2026-05-05 05:48 37.26423 140.49665 23610 ft 434 kts 199°
2026-05-05 05:48 37.23484 140.48826 22930 ft 432 kts 199°
2026-05-05 05:48 37.20599 140.47996 22271 ft 429 kts 199°
2026-05-05 05:48 37.17700 140.47161 21633 ft 426 kts 198°
2026-05-05 05:49 37.14813 140.46338 20992 ft 424 kts 198°
2026-05-05 05:49 37.11924 140.45522 20358 ft 422 kts 198°
2026-05-05 05:49 37.09065 140.44716 19755 ft 420 kts 198°
2026-05-05 05:49 37.07179 140.44185 19343 ft 419 kts 198°
2026-05-05 05:50 37.03391 140.43116 18567 ft 416 kts 198°
2026-05-05 05:50 37.01523 140.42589 18140 ft 415 kts 198°
2026-05-05 05:50 36.98714 140.41796 17471 ft 412 kts 197°
2026-05-05 05:50 36.95922 140.41009 16836 ft 410 kts 197°
2026-05-05 05:51 36.93144 140.40227 16199 ft 408 kts 197°
2026-05-05 05:51 36.90380 140.39451 15580 ft 406 kts 197°
2026-05-05 05:51 36.87634 140.38685 14984 ft 404 kts 197°
2026-05-05 05:51 36.84901 140.37925 14375 ft 402 kts 197°
2026-05-05 05:52 36.82175 140.37166 13773 ft 400 kts 196°
2026-05-05 05:52 36.79488 140.36418 13120 ft 398 kts 196°
2026-05-05 05:52 36.76785 140.35666 12500 ft 397 kts 196°
2026-05-05 05:52 36.74109 140.34927 12066 ft 390 kts 195°
2026-05-05 05:53 36.71453 140.34333 11680 ft 383 kts 192°
2026-05-05 05:53 36.68842 140.33833 11326 ft 376 kts 191°
2026-05-05 05:53 36.66279 140.33337 10935 ft 369 kts 191°
2026-05-05 05:53 36.63766 140.32839 10579 ft 363 kts 192°
2026-05-05 05:54 36.61287 140.32341 10230 ft 357 kts 191°
2026-05-05 05:54 36.58838 140.31847 9849 ft 353 kts 191°
2026-05-05 05:54 36.56428 140.31360 9452 ft 349 kts 191°
2026-05-05 05:54 36.54034 140.30879 9067 ft 345 kts 191°
2026-05-05 05:55 36.51707 140.30411 8677 ft 342 kts 191°
2026-05-05 05:55 36.49377 140.29943 8294 ft 338 kts 191°
2026-05-05 05:55 36.47069 140.29480 8043 ft 330 kts 191°
2026-05-05 05:55 36.44850 140.29036 7998 ft 317 kts 191°
2026-05-05 05:56 36.42712 140.28607 7996 ft 303 kts 191°
2026-05-05 05:56 36.40671 140.28199 7995 ft 291 kts 191°
2026-05-05 05:56 36.38706 140.27853 7984 ft 280 kts 190°
2026-05-05 05:56 36.36814 140.27555 7990 ft 268 kts 190°
2026-05-05 05:57 36.35014 140.27277 7988 ft 260 kts 190°
2026-05-05 05:57 36.33234 140.27001 7992 ft 256 kts 190°
2026-05-05 05:57 36.31469 140.26725 8002 ft 257 kts 190°
2026-05-05 05:57 36.29696 140.26447 8000 ft 254 kts 190°
2026-05-05 05:58 36.28004 140.26181 7995 ft 246 kts 190°
2026-05-05 05:58 36.26336 140.25919 7989 ft 239 kts 191°
2026-05-05 05:58 36.24697 140.25660 7989 ft 237 kts 190°
2026-05-05 05:58 36.23062 140.25400 8015 ft 236 kts 190°
2026-05-05 05:59 36.21433 140.25142 8016 ft 235 kts 190°
2026-05-05 05:59 36.19812 140.24885 8005 ft 235 kts 190°
2026-05-05 05:59 36.18210 140.24631 7999 ft 235 kts 191°
2026-05-05 05:59 36.16584 140.24373 8012 ft 236 kts 191°
2026-05-05 06:00 36.14950 140.24114 8016 ft 237 kts 191°
2026-05-05 06:00 36.13300 140.23852 8023 ft 239 kts 191°
2026-05-05 06:00 36.11690 140.23597 8024 ft 241 kts 190°
2026-05-05 06:00 36.10017 140.23333 8019 ft 242 kts 191°
2026-05-05 06:01 36.08342 140.23068 8018 ft 242 kts 191°
2026-05-05 06:01 36.06666 140.22804 8017 ft 242 kts 191°
2026-05-05 06:01 36.04994 140.22540 8016 ft 242 kts 190°
2026-05-05 06:01 36.03343 140.22280 8016 ft 242 kts 190°
2026-05-05 06:02 36.01671 140.22016 8015 ft 242 kts 190°
2026-05-05 06:02 36.00014 140.21754 8012 ft 241 kts 190°
2026-05-05 06:02 35.98346 140.21491 8019 ft 241 kts 190°
2026-05-05 06:02 35.96680 140.21228 8022 ft 241 kts 191°
2026-05-05 06:03 35.95032 140.20969 8022 ft 241 kts 191°
2026-05-05 06:03 35.93367 140.20707 8030 ft 241 kts 191°
2026-05-05 06:03 35.91705 140.20408 8021 ft 240 kts 198°
2026-05-05 06:03 35.90350 140.19425 8026 ft 231 kts 232°
2026-05-05 06:04 35.89507 140.17771 8031 ft 227 kts 248°
2026-05-05 06:04 35.88870 140.15975 8031 ft 228 kts 250°
2026-05-05 06:04 35.88265 140.14166 8022 ft 227 kts 250°
2026-05-05 06:04 35.87680 140.12411 7683 ft 231 kts 250°
2026-05-05 06:05 35.87063 140.10577 7324 ft 231 kts 250°
2026-05-05 06:05 35.86461 140.08800 6976 ft 231 kts 250°
2026-05-05 06:05 35.85854 140.07019 6627 ft 231 kts 249°
2026-05-05 06:05 35.85254 140.05265 6267 ft 231 kts 249°
2026-05-05 06:06 35.84643 140.03486 6058 ft 224 kts 249°
2026-05-05 06:06 35.84053 140.01774 6017 ft 209 kts 249°
2026-05-05 06:06 35.83511 140.00199 6032 ft 207 kts 249°
2026-05-05 06:06 35.82988 139.98681 6016 ft 206 kts 249°
2026-05-05 06:07 35.82426 139.97053 6035 ft 208 kts 248°
2026-05-05 06:07 35.81844 139.95387 6060 ft 216 kts 247°
2026-05-05 06:07 35.81278 139.93745 6039 ft 222 kts 247°
2026-05-05 06:07 35.80669 139.91981 6046 ft 224 kts 247°
2026-05-05 06:08 35.80078 139.90273 6027 ft 223 kts 247°
2026-05-05 06:08 35.79496 139.88515 6029 ft 220 kts 254°
2026-05-05 06:08 35.79499 139.86659 6047 ft 216 kts 282°
2026-05-05 06:08 35.79922 139.84966 5874 ft 220 kts 288°
2026-05-05 06:09 35.80414 139.83240 5552 ft 222 kts 288°
2026-05-05 06:09 35.80894 139.81564 5188 ft 221 kts 287°
2026-05-05 06:09 35.81298 139.79747 4802 ft 219 kts 277°
2026-05-05 06:09 35.81550 139.77958 4554 ft 213 kts 277°
2026-05-05 06:10 35.81784 139.76244 4539 ft 214 kts 277°
2026-05-05 06:10 35.81907 139.74518 4520 ft 212 kts 257°
2026-05-05 06:10 35.81275 139.72967 4536 ft 201 kts 223°
2026-05-05 06:10 35.80186 139.71968 4494 ft 201 kts 210°
2026-05-05 06:11 35.78951 139.71098 4114 ft 204 kts 208°
2026-05-05 06:11 35.77772 139.70288 4042 ft 191 kts 208°
2026-05-05 06:11 35.76741 139.69573 4005 ft 178 kts 207°
2026-05-05 06:11 35.75672 139.68827 3994 ft 176 kts 208°
2026-05-05 06:12 35.74523 139.68376 4003 ft 179 kts 175°
2026-05-05 06:12 35.73282 139.68628 4004 ft 180 kts 172°
2026-05-05 06:12 35.72087 139.68883 4006 ft 175 kts 171°
2026-05-05 06:12 35.70885 139.69143 4018 ft 176 kts 171°
2026-05-05 06:13 35.69690 139.69407 4012 ft 172 kts 168°
2026-05-05 06:13 35.68565 139.70012 3732 ft 184 kts 152°
2026-05-05 06:13 35.67491 139.70886 3324 ft 183 kts 148°
2026-05-05 06:13 35.66474 139.71789 2873 ft 179 kts 144°
2026-05-05 06:14 35.65485 139.72700 2460 ft 173 kts 150°
2026-05-05 06:14 35.64513 139.73362 2398 ft 148 kts 155°
2026-05-05 06:14 35.63601 139.73907 2177 ft 147 kts 158°
2026-05-05 06:14 35.62664 139.74424 1973 ft 149 kts 157°
2026-05-05 06:15 35.61720 139.74995 1599 ft 156 kts 153°
2026-05-05 06:15 35.60741 139.75658 1239 ft 160 kts 152°
2026-05-05 06:15 35.59829 139.76348 957 ft 152 kts 149°
2026-05-05 06:15 35.58955 139.76999 651 ft 142 kts 151°
2026-05-05 06:16 35.58075 139.77567 416 ft 150 kts 150°
2026-05-05 06:16 35.57174 139.78235 219 ft 153 kts 149°
2026-05-05 06:16 35.56279 139.78879 34 ft 141 kts 150°
2026-05-05 06:16 35.55539 139.79400 24 ft 97 kts 150°
2026-05-05 06:17 35.55138 139.79680 23 ft 39 kts 155°
2026-05-05 06:17 35.54919 139.79747 23 ft 24 kts 177°
2026-05-05 06:17 35.54841 139.79670 22 ft 16 kts 279°
2026-05-05 06:17 35.54921 139.79584 22 ft 15 kts 329°
2026-05-05 06:18 35.55011 139.79520 24 ft 15 kts 330°
2026-05-05 06:18 35.55093 139.79463 22 ft 14 kts 328°
2026-05-05 06:18 35.55115 139.79385 22 ft 10 kts 254°
2026-05-05 06:18 35.55091 139.79328 23 ft 0 kts 234°
2026-05-05 06:19 35.55096 139.79321 26 ft 3 kts 319°
2026-05-05 06:19 35.55154 139.79289 24 ft 17 kts 332°
2026-05-05 06:20 35.55279 139.79201 25 ft 23 kts 329°
2026-05-05 06:20 35.55414 139.79103 23 ft 22 kts 330°
2026-05-05 06:20 35.55549 139.79011 23 ft 22 kts 330°
2026-05-05 06:20 35.55659 139.78933 24 ft 16 kts 328°
2026-05-05 06:21 35.55681 139.78819 23 ft 15 kts 242°
2026-05-05 06:21 35.55663 139.78701 23 ft 15 kts 303°
2026-05-05 06:21 35.55731 139.78619 24 ft 13 kts 291°
2026-05-05 06:21 35.55708 139.78534 23 ft 8 kts 240°
2026-05-05 06:22 35.55703 139.78522 23 ft 1 kts 239°
2026-05-05 06:22 35.55702 139.78520 23 ft 0 kts 240°